Date String (YYYY-MM-DD hh:mm:ss) UTC,Instrument flags,Ambient pressure (hPa),Sample flow (lpm),Bypass flow (lpm),Sample temperature (°C),Ambient temperature (°C),ASC tube jacket temperature (°C),LED temperature (°C),Box temperature (°C),Sample RH (%),Span deviation,Mass concentration (μg/m³),Mass concentration (μg/m³),Mass concentration (μg/m³)
DateTimeUTC,F1_M11,P_M11,Q1_M11,Q2_M11,T1_M11,T2_M11,T3_M11,T4_M11,T5_M11,U1_M11,ZSPAN_M11,X0_M11,X2_M11,X1_M11
2022-04-04 01:00:00,,0823.7,5.00,0.00,25.4,24.7,00.0,34.5,27.2,11.2,0000.0,0018.71,0006.10,0004.15
2022-04-04 01:01:00,,0823.7,5.00,0.00,25.4,24.7,00.0,34.5,27.2,11.1,0000.0,0019.14,0006.17,0004.16
2022-04-04 01:02:00,,0823.7,4.98,0.00,25.4,24.7,00.0,34.5,27.2,11.0,0000.0,0018.31,0006.17,0004.16
2022-04-04 01:03:00,,0823.7,5.00,0.00,25.4,24.7,00.0,34.5,27.2,11.1,0000.0,0017.80,0006.22,0004.16
2022-04-04 01:04:00,,0823.6,5.00,0.00,25.4,24.7,00.0,34.5,27.2,11.1,0000.0,0018.67,0006.17,0004.16
2022-04-04 01:05:00,,0823.6,5.00,0.00,25.4,24.7,00.0,34.4,27.2,11.2,0000.0,0018.39,0006.22,0004.17
2022-04-04 01:06:00,,0823.7,5.01,0.00,25.4,24.7,00.0,34.4,27.3,11.2,0000.0,0017.91,0006.18,0004.16
2022-04-04 01:07:00,,0823.6,5.01,0.00,25.4,24.8,00.0,34.4,27.2,11.2,0000.0,0018.71,0006.14,0004.15
2022-04-04 01:08:00,,0823.6,4.98,0.00,25.4,24.8,00.0,34.4,27.3,11.2,0000.0,0019.01,0006.15,0004.14
2022-04-04 01:09:00,,0823.7,5.00,0.00,25.4,24.8,00.0,34.4,27.3,11.3,0000.0,0018.07,0006.10,0004.13
2022-04-04 01:10:00,,0823.6,5.00,0.00,25.4,24.8,00.0,34.4,27.3,11.2,0000.0,0017.92,0006.11,0004.13
2022-04-04 01:11:00,,0823.6,5.00,0.00,25.4,24.8,00.0,34.4,27.3,11.2,0000.0,0017.37,0006.03,0004.11
2022-04-04 01:12:00,,0823.6,5.00,0.00,25.4,24.8,00.0,34.4,27.3,11.2,0000.0,0017.45,0005.96,0004.10
2022-04-04 01:13:00,,0823.7,5.00,0.00,25.4,24.8,00.0,34.4,27.3,11.1,0000.0,0017.46,0006.02,0004.10
2022-04-04 01:14:00,,0823.7,5.00,0.00,25.4,24.8,00.0,34.4,27.3,11.1,0000.0,0017.27,0006.00,0004.11
2022-04-04 01:15:00,,0823.7,4.99,0.00,25.4,24.8,00.0,34.4,27.3,11.1,0000.0,0016.05,0006.01,0004.12
2022-04-04 01:16:00,,0823.7,4.99,0.00,25.4,24.8,00.0,34.4,27.3,11.1,0000.0,0015.13,0005.93,0004.10
2022-04-04 01:17:00,,0823.7,5.00,0.00,25.4,24.8,00.0,34.4,27.2,11.1,0000.0,0015.64,0006.00,0004.09
2022-04-04 01:18:00,,0823.6,5.00,0.00,25.4,24.8,00.0,34.4,27.2,11.1,0000.0,0014.88,0006.01,0004.09
2022-04-04 01:19:00,,0823.6,5.00,0.00,25.4,24.8,00.0,34.4,27.2,11.0,0000.0,0014.80,0005.97,0004.08
2022-04-04 01:20:00,,0823.7,5.00,0.00,25.4,24.8,00.0,34.4,27.2,11.0,0000.0,0015.45,0005.99,0004.08
2022-04-04 01:21:00,,0823.6,5.00,0.00,25.4,24.7,00.0,34.4,27.2,11.0,0000.0,0015.78,0005.97,0004.07
2022-04-04 01:22:00,,0823.7,5.00,0.00,25.4,24.7,00.0,34.4,27.2,11.0,0000.0,0015.98,0006.01,0004.07
2022-04-04 01:23:00,,0823.7,5.00,0.00,25.4,24.7,00.0,34.4,27.2,11.0,0000.0,0015.61,0006.05,0004.08
2022-04-04 01:24:00,,0823.7,5.00,0.00,25.3,24.7,00.0,34.4,27.2,11.0,0000.0,0016.09,0006.05,0004.08
2022-04-04 01:25:00,,0823.7,5.00,0.00,25.3,24.7,00.0,34.4,27.1,11.0,0000.0,0016.40,0006.06,0004.07
2022-04-04 01:26:00,,0823.7,5.01,0.00,25.3,24.7,00.0,34.4,27.1,11.0,0000.0,0017.81,0006.07,0004.07
2022-04-04 01:27:00,,0823.7,5.00,0.00,25.3,24.7,00.0,34.4,27.1,11.0,0000.0,0018.47,0006.10,0004.08
2022-04-04 01:28:00,,0823.7,5.00,0.00,25.3,24.7,00.0,34.4,27.1,11.1,0000.0,0018.38,0006.12,0004.08
2022-04-04 01:29:00,,0823.7,5.00,0.00,25.3,24.7,00.0,34.4,27.1,11.1,0000.0,0017.90,0006.10,0004.09
2022-04-04 01:30:00,,0823.7,4.99,0.00,25.3,24.7,00.0,34.3,27.1,11.0,0000.0,0017.70,0006.14,0004.10
2022-04-04 01:31:00,,0823.7,5.00,0.00,25.3,24.7,00.0,34.3,27.1,11.1,0000.0,0018.09,0006.14,0004.11
2022-04-04 01:32:00,,0823.7,5.01,0.00,25.3,24.7,00.0,34.3,27.1,11.0,0000.0,0017.95,0006.12,0004.11
2022-04-04 01:33:00,,0823.6,5.01,0.00,25.3,24.7,00.0,34.3,27.1,11.0,0000.0,0017.95,0006.15,0004.13
2022-04-04 01:34:00,,0823.7,5.00,0.00,25.3,24.8,00.0,34.3,27.2,11.0,0000.0,0018.01,0006.15,0004.14
2022-04-04 01:35:00,,0823.7,4.99,0.00,25.3,24.8,00.0,34.3,27.2,11.0,0000.0,0017.90,0006.18,0004.14
2022-04-04 01:36:00,,0823.6,4.99,0.00,25.4,24.8,00.0,34.3,27.2,11.0,0000.0,0018.13,0006.28,0004.17
2022-04-04 01:37:00,,0823.7,5.01,0.00,25.4,24.8,00.0,34.3,27.3,11.0,0000.0,0017.27,0006.30,0004.19
2022-04-04 01:38:00,,0823.7,5.01,0.00,25.4,24.9,00.0,34.3,27.3,11.0,0000.0,0016.52,0006.40,0004.21
2022-04-04 01:39:00,,0823.7,4.99,0.00,25.5,24.9,00.0,34.4,27.4,11.0,0000.0,0016.42,0006.43,0004.23
2022-04-04 01:40:00,,0823.7,5.01,0.00,25.5,24.9,00.0,34.4,27.4,11.0,0000.0,0016.56,0006.41,0004.23
2022-04-04 01:41:00,,0823.7,4.98,0.00,25.5,25.0,00.0,34.4,27.5,11.0,0000.0,0016.60,0006.43,0004.25
2022-04-04 01:42:00,,0823.7,5.01,0.00,25.6,25.0,00.0,34.4,27.5,10.9,0000.0,0016.04,0006.48,0004.28
2022-04-04 01:43:00,,0823.7,5.00,0.00,25.6,25.0,00.0,34.4,27.5,10.9,0000.0,0016.00,0006.57,0004.32
2022-04-04 01:44:00,,0823.7,5.00,0.00,25.6,25.0,00.0,34.4,27.5,10.8,0000.0,0016.58,0006.60,0004.36
2022-04-04 01:45:00,,0823.7,5.00,0.00,25.6,25.0,00.0,34.4,27.5,10.8,0000.0,0017.05,0006.63,0004.39
2022-04-04 01:46:00,,0823.6,4.99,0.00,25.6,25.1,00.0,34.5,27.6,10.8,0000.0,0016.89,0006.66,0004.43
2022-04-04 01:47:00,,0823.6,5.00,0.00,25.7,25.1,00.0,34.5,27.6,10.8,0000.0,0016.91,0006.58,0004.45
2022-04-04 01:48:00,,0823.6,5.01,0.00,25.7,25.1,00.0,34.5,27.6,10.8,0000.0,0016.94,0006.62,0004.48
2022-04-04 01:49:00,,0823.7,5.00,0.00,25.7,25.1,00.0,34.5,27.6,10.8,0000.0,0017.11,0006.58,0004.50
2022-04-04 01:50:00,,0823.7,5.01,0.00,25.7,25.1,00.0,34.5,27.6,10.8,0000.0,0017.26,0006.61,0004.52
2022-04-04 01:51:00,,0823.7,4.99,0.00,25.7,25.1,00.0,34.5,27.6,10.9,0000.0,0018.23,0006.63,0004.54
2022-04-04 01:52:00,,0823.7,5.00,0.00,25.7,25.1,00.0,34.6,27.6,10.9,0000.0,0018.75,0006.65,0004.55
2022-04-04 01:53:00,,0823.7,5.00,0.00,25.7,25.1,00.0,34.6,27.6,11.0,0000.0,0019.91,0006.72,0004.59
2022-04-04 01:54:00,,0823.7,5.00,0.00,25.7,25.1,00.0,34.6,27.6,11.0,0000.0,0020.62,0006.81,0004.62
2022-04-04 01:55:00,,0823.7,5.00,0.00,25.8,25.1,00.0,34.6,27.7,11.0,0000.0,0020.02,0006.84,0004.64
2022-04-04 01:56:00,,0823.7,5.00,0.00,25.8,25.1,00.0,34.6,27.7,11.0,0000.0,0018.90,0006.79,0004.65
2022-04-04 01:57:00,,0823.7,5.00,0.00,25.8,25.2,00.0,34.6,27.7,11.0,0000.0,0019.52,0006.89,0004.67
2022-04-04 01:58:00,,0823.7,4.98,0.00,25.8,25.2,00.0,34.6,27.7,11.0,0000.0,0019.43,0006.96,0004.69
2022-04-04 01:59:00,,0823.7,5.00,0.00,25.8,25.1,00.0,34.6,27.7,11.0,0000.0,0020.45,0007.01,0004.71
